map of AOI home
AOI - Airport
Location
City:  Ancona, Marche, Italy
Name:Falconara
ICAO:LIPY
IATA:AOI

Details
Type:Airport (Aerodrome, Airfield)
Use:Public/Civil
Latitude:4336'59"N (43.616342)
Longitude:1321'44"E (13.362319)
Datum:WGS 1984
Elevation:49 ft (15 m)
Variation:3.59E (WMM2015v2 magnetic declination)
0.14 annual change
Runways:1
Longest:9718 × 148 ft (2962 × 45 m), paved

Time
Time Zone:UTC+1 (DST+2)
Local Time:

Weather
METAR:LIPY 041350Z 35009KT 9999 FEW040 11/07 Q1022
TAF:LIPY 041100Z 0412/0512 33012KT 8000 FEW015 BKN040

Related Locations
Nearby:
Farthest:CHT: 11949 mi / 19230 km
Waitangi [Tuuta], CIT, NZ

Find:

   beyond  
but within

Other Information
Maps:
NOTAMs:
Links:
Sources:

  
  • flag of Italy
  • flag of Marche
  

Sectional Chart

Flight Planning
at skyvector.com

Satellite Image

Google Maps Satellite view

 

Copyright © 2004-2019 Karl L. Swartz. All rights reserved.
The Great Circle Mapper name and logo are trademarks of the Great Circle Mapper.
All other trademarks mentioned herein belong to their respective owners.
Please see credits for attibutions and further copyright information.

  Follow gcmap on Facebook Follow gcmap on Twitter GCmap on LinkedIn

hCard Microformat

Geo Microformat